This is the latest recevied weather packets stored in our database for station/object EA5JMY-10. If no packets are shown the sender has not sent any weather packets the latest 1 day(s).
| Time | Temp. | Humidity | Pressure | Rain* | Wind** | Luminosity | Snow |
|---|---|---|---|---|---|---|---|
| 1778096724 | 18.33° C | 60% | 1013.7 hPa | - | - | - | - |
| 1778095824 | 18.89° C | 58% | 1013.6 hPa | - | - | - | - |
| 1778094924 | 19.44° C | 55% | 1013.4 hPa | - | - | - | - |
| 1778094024 | 19.44° C | 54% | 1013.5 hPa | - | - | - | - |
| 1778093124 | 20° C | 54% | 1013.3 hPa | - | - | - | - |
| 1778092224 | 20° C | 53% | 1013.3 hPa | - | - | - | - |
| 1778091324 | 20.56° C | 51% | 1013.4 hPa | - | - | - | - |
| 1778090423 | 21.11° C | 50% | 1013.3 hPa | - | - | - | - |
| 1778089523 | 21.11° C | 51% | 1013.2 hPa | - | - | - | - |
| 1778088623 | 21.67° C | 51% | 1013.2 hPa | - | - | - | - |
| 1778087723 | 21.11° C | 51% | 1013.2 hPa | - | - | - | - |
| 1778086823 | 21.67° C | 49% | 1013.2 hPa | - | - | - | - |
| 1778085922 | 22.22° C | 48% | 1013.1 hPa | - | - | - | - |
| 1778085022 | 21.67° C | 48% | 1013.2 hPa | - | - | - | - |
| 1778084122 | 21.67° C | 47% | 1013.3 hPa | - | - | - | - |
| 1778083221 | 22.22° C | 46% | 1013.3 hPa | - | - | - | - |
| 1778082320 | 22.78° C | 44% | 1013.4 hPa | - | - | - | - |
| 1778081420 | 22.78° C | 44% | 1013.3 hPa | - | - | - | - |
| 1778080520 | 22.78° C | 44% | 1013.2 hPa | - | - | - | - |
| 1778079620 | 23.33° C | 43% | 1013.3 hPa | - | - | - | - |
| 1778078720 | 22.78° C | 44% | 1013.5 hPa | - | - | - | - |
| 1778077820 | 23.33° C | 43% | 1013.7 hPa | - | - | - | - |
| 1778076920 | 23.89° C | 44% | 1013.8 hPa | - | - | - | - |
| 1778076020 | 23.33° C | 45% | 1014 hPa | - | - | - | - |
| 1778075120 | 23.33° C | 45% | 1014.1 hPa | - | - | - | - |
* Rain since midnight (hover to see other rain measurements)
** Current wind speed in m/s (hover to see current wind gust speed)